sat.trackr.live / text

‹ back to catalog

STARLINK-34342

NORAD 64271 · 2025-120R

PAYLOAD ACTIVE UNKNOWN

§ Identity

Operator
Country
US
Launch date
2025-06-04
Launch site
AFWTR
Launch vehicle
Mass (kg)
RCS (m²)

Purposes: comms

External: N2YO · Heavens-Above · Gunter

§ Orbital elements

Epoch: 2026-05-25T05:30:09.950976Z

Period
94.10 min
Inclination
53.1575°
Eccentricity
0.0001195
Mean motion
15.30207100 rev/d
Perigee alt
474.4 km
Apogee alt
476.0 km
Semi-major
6,853.3 km
B*
6.7806e-4
RAAN
121.2476°
Arg perigee
75.3724°
Mean anomaly
284.7410°
Rev number
5,558

§ Raw data

STARLINK-343421 64271U 25120R   26145.22928184  .00019781  00000+0  67806-3 0  99992 64271  53.1575 121.2476 0001195  75.3724 284.7410 15.30207100 55583

JSON: /api/v1/satellites/64271 · /tle

For live sub-satellite position, see the globe view (requires WebGL).

§ Visibility from observer

Set your observer location to see the next 7 days of passes ≥ 10°. The values pass through the URL so the page stays shareable.

No JS? Fill the form by hand. The geolocation button needs JavaScript.